Details From EPKK - Balice
To EDDB - Berlin Schoenefeld
Flight Number -
Tags Generated
Created
Modified
Stats Distance 273 nm / 505 km
Max Altitude 0 ft / 0 m
Waypoints 3
Social Downloads 2
Likes 0
Share VATSIM

Download

Looking for another format? Having issues loading an existing format? Contact us
Advertisement - Login to hide

Notes

Generated

Route

EPKK DB440 EDDB

ID Type Via Altitude Latitude Longitude Leg Dist Tot Dist Heading (true) Name
O EPKK APT - 0 ft / 0 m 50.07540˚ 19.76809˚ - 0 nm - -
DB440 FIX - 0 ft / 0 m 52.32847˚ 13.69666˚ 265 nm 265 nm 303° / 298° -
O EDDB APT - 0 ft / 0 m 52.38012˚ 13.51714˚ 7 nm 272 nm 295° / 295° Berlin Schoenefeld

Altitude Profile

Weather

Temperature
Clouds and Precipitation
Forecast for 2017-02-20 12:00 UTC. Updated an hour ago
Winds

EPKK

Details ICAO EPKK (KRK)
Name BALICE
Region Poland
Timezone Europe/Warsaw (UTC+1.0)
Stats Elevation 791 ft / 241 m (AMSL)
Location 50.077821° 19.785503°
Runways 1
Magnetic Variation 5.102° E

METAR

EPKK 200800Z 18003KT 5000 BR NSC 01/M02 Q1019

Decode

TAF

TAF EPKK 200530Z 2006/2106 22005KT 8000 NSC TEMPO 2006/2008 2500 BR BECMG 2015/2018 24015G25KT BECMG 2018/2021 4000 RA BR BKN020

Decode

Departure Runways

ID Width Length Bearing (true) Bearing (mag) Surface Threshold Offset Overrun Length
07 197 ft / 60 m 8,343 ft / 2,543 m 77.75° 72.65° Concrete 0 ft / 0 m 0 ft / 0 m
25 197 ft / 60 m 8,343 ft / 2,543 m 257.77° 252.67° Concrete 784 ft / 239 m 0 ft / 0 m

EDDB

Details ICAO EDDB (BER)
Name Berlin Schoenefeld
Region Germany - Civil
Timezone Europe/Berlin (UTC+1.0)
Stats Elevation 157 ft / 48 m (AMSL)
Location 52.378541° 13.520629°
Runways 2
Magnetic Variation 3.698° E

METAR

EDDB 200820Z 22011KT 9999 BKN029 06/04 Q1015 NOSIG

Decode

TAF

TAF TAF EDDB 200500Z 2006/2106 23010KT 5000 BR BKN008 TEMPO 2006/2009 4000 BR BECMG 2006/2009 SCT008 BKN030 BECMG 2008/2011 23015G25KT BECMG 2011/2014 BKN012 TEMPO 2012/2018 4500 RADZ BKN007 TEMPO 2018/2101 4000 -RADZ BR BKN004

Decode

Destination Runways

ID Width Length Bearing (true) Bearing (mag) Surface Threshold Offset Overrun Length
07 148 ft / 45 m 9,817 ft / 2,992 m 68.75° 65.05° Asphalt 0 ft / 0 m 984 ft / 300 m
07L 148 ft / 45 m 8,867 ft / 2,703 m 68.77° 65.07° Concrete 0 ft / 0 m 525 ft / 160 m
25 148 ft / 45 m 9,817 ft / 2,992 m 248.78° 245.08° Asphalt 0 ft / 0 m 984 ft / 300 m
25R 148 ft / 45 m 8,867 ft / 2,703 m 248.80° 245.10° Concrete 0 ft / 0 m 984 ft / 300 m

Approach Navaids

Runway Type Ident Frequency Range Bearing (true) Bearing (mag) Slope Elevation
07 Localiser ISSE 110.70 MHz 18 nm / 33 km 68.79° 65.09° - 157 ft / 48 m (AMSL)
07 Glidescope ISSE 110.70 MHz 10 nm / 19 km 68.77° 65.07° 3.00° 157 ft / 48 m (AMSL)
25 Localiser ISSW 109.90 MHz 18 nm / 33 km 248.75° 245.05° - 157 ft / 48 m (AMSL)
25 Glidescope ISSW 109.90 MHz 10 nm / 19 km 248.77° 245.07° 3.00° 157 ft / 48 m (AMSL)

Popular Alternatives